Voltar ao catálogo

STARLINK-34109

AtivoComunicaçõesVLEO
NORAD 63807·PAYLOAD·🇺🇸 United States

Lançado May 4, 2025 de Cape Canaveral Space Force Station

Loading…

Próximas Passagens (próximas 24 horas)

TLE

AtualizadoSource: CelesTrak SupGP

Época: Sep 15, 2026, 02:59 UTC

1 63807C 25092D   26258.12479167 -.00017782  00000+0 -64414-3 0  2588
2 63807  42.9997 182.4935 0001390 274.5485 272.7825 15.27582420    16

Acompanhe STARLINK-34109 em tempo real com AllMySat

Download on the App Store